K5EBQ Weather Reports


Display with metric or nautical units.
time (UTC)temp
F
wind
direction
speed
MPH
gust
MPH
rain 1hr
in
rain 24hr
in
rain mn
in
humidity
%
barometer
mb
20260904233024 91 51 0.0 53.0 0.00 0.07 0.07 64 1009.3
20260904231520 91 90 6.0 31.0 0.00 0.07 0.07 65 1009.4
20260904230020 91 72 10.0 45.0 0.00 0.07 0.07 65 1009.4
20260904224524 91 65 21.0 69.0 0.00 0.07 0.07 65 1009.4
20260904223019 92 34 39.0 80.0 0.00 0.07 0.07 65 1009.3
20260904221538 93 243 0.0 0.0 0.00 0.07 0.07 59 1009.5
20260904220015 94 108 0.0 2.0 0.00 0.08 0.07 59 1009.7
20260904214518 93 146 0.0 3.0 0.00 0.08 0.07 60 1009.7
20260904213017 93 202 0.0 0.0 0.00 0.08 0.07 62 1009.7
20260904211512 92 155 0.0 0.0 0.00 0.08 0.07 63 1009.9
20260904210010 93 171 0.0 0.0 0.00 0.12 0.07 63 1010.2
20260904204510 93 171 0.0 0.0 0.00 0.12 0.07 64 1010.4
20260904203008 93 171 0.0 0.0 0.00 0.12 0.07 62 1010.8
20260904201504 92 175 0.0 0.0 0.00 0.12 0.07 66 1010.9
20260904200005 91 231 0.0 0.0 0.00 0.13 0.07 67 1010.9
20260904194503 90 191 0.0 0.0 0.00 0.13 0.07 69 1011.1
20260904193004 89 97 0.0 0.0 0.00 0.13 0.07 71 1011.2
20260904191502 87 87 0.0 0.0 0.00 0.13 0.07 77 1011.5
20260904190006 84 229 0.0 0.0 0.00 1.42 0.07 82 1011.9
20260904184502 83 290 0.0 0.0 0.00 1.42 0.07 81 1012.3
20260904183002 83 289 0.0 0.0 0.01 1.42 0.07 80 1012.2
20260904181601 82 289 0.0 0.0 0.01 1.42 0.07 84 1012.6
20260904180100 80 288 0.0 0.0 0.02 1.49 0.07 87 1012.9
20260904174604 79 308 0.0 0.0 0.02 1.49 0.07 88 1012.8
20260904173110 79 309 0.0 0.0 0.01 1.48 0.06 89 1012.8
20260904171558 81 288 0.0 0.0 0.01 1.48 0.06 85 1013.2
20260904170057 84 236 0.0 0.0 0.00 1.48 0.05 77 1013.7
20260904164555 89 128 0.0 0.0 0.00 1.48 0.05 77 1012.8
20260904163052 91 53 0.0 0.0 0.00 1.48 0.05 75 1012.5
20260904161549 92 34 0.0 0.0 0.00 1.48 0.05 69 1012.2
20260904160044 92 52 0.0 0.0 0.00 1.48 0.05 70 1012.0
20260904154539 91 190 0.0 0.0 0.00 1.48 0.05 73 1012.1
20260904153042 91 82 0.0 0.0 0.00 1.48 0.05 75 1011.9
20260904151541 89 190 0.0 0.0 0.00 1.48 0.05 79 1012.0
20260904150034 88 167 0.0 0.0 0.00 1.48 0.05 82 1011.9
20260904144528 88 57 0.0 0.0 0.01 1.48 0.05 83 1012.0
20260904143024 87 69 0.0 0.0 0.01 1.48 0.05 87 1011.9
20260904141522 85 56 0.0 0.0 0.01 1.48 0.05 91 1011.9
20260904140017 83 55 0.0 0.0 0.01 1.48 0.05 96 1011.9
20260904134516 81 46 0.0 0.0 0.00 1.47 0.04 97 1011.8
20260904133011 81 46 0.0 0.0 0.00 1.47 0.04 97 1011.8
20260904131508 80 46 0.0 0.0 0.00 1.47 0.04 97 1011.7
20260904130007 80 46 0.0 0.0 0.00 1.47 0.04 97 1011.5
20260904124505 80 46 0.0 0.0 0.00 1.47 0.04 97 1011.3
20260904123004 80 46 0.0 0.0 0.00 1.47 0.04 97 1011.1
20260904121601 80 46 0.0 0.0 0.00 1.47 0.04 97 1010.9
20260904120100 80 46 0.0 0.0 0.00 1.47 0.04 96 1010.8
20260904114559 80 46 0.0 0.0 0.00 1.47 0.04 96 1010.7
20260904113101 80 46 0.0 0.0 0.02 1.47 0.04 96 1010.8
20260904111557 80 46 0.0 0.0 0.04 1.47 0.04 96 1010.8
20260904110055 80 46 0.0 0.0 0.04 1.47 0.04 96 1010.7
20260904104555 80 46 0.0 0.0 0.04 1.47 0.04 96 1010.5
20260904103054 80 46 0.0 0.0 0.02 1.45 0.02 96 1010.2
20260904101554 80 46 0.0 0.0 0.00 1.43 0.00 96 1010.3
20260904094552 80 46 0.0 0.0 0.00 1.43 0.00 96 1010.2
20260904093056 80 46 0.0 0.0 0.00 1.43 0.00 96 1010.1
20260904091551 80 46 0.0 0.0 0.00 1.43 0.00 96 1010.1
20260904090053 80 46 0.0 0.0 0.00 1.43 0.00 96 1010.1
20260904084550 80 46 0.0 0.0 0.00 1.43 0.00 95 1010.1
20260904083049 80 46 0.0 0.0 0.00 1.43 0.00 95 1010.1
20260904081550 80 46 0.0 0.0 0.00 1.43 0.00 95 1010.2
20260904080052 80 46 0.0 0.0 0.00 1.43 0.00 95 1010.2
20260904074546 80 46 0.0 0.0 0.00 1.43 0.00 95 1010.3
20260904073050 80 46 0.0 0.0 0.00 1.43 0.00 94 1010.4
20260904071544 80 46 0.0 0.0 0.00 1.43 0.00 94 1010.4
20260904070043 80 46 0.0 0.0 0.00 1.43 0.00 94 1010.4
20260904064541 80 46 0.0 0.0 0.00 1.43 0.00 94 1010.6
20260904063041 80 46 0.0 0.0 0.00 1.43 0.00 94 1010.6
20260904061547 80 46 0.0 0.0 0.00 1.43 0.00 94 1010.6
20260904060038 80 46 0.0 1.0 0.00 1.43 0.00 94 1010.6
20260904054538 80 46 0.0 2.0 0.00 1.43 0.00 94 1010.5
20260904053040 80 46 0.0 1.0 0.00 1.43 0.00 94 1010.5
20260904051536 80 46 0.0 0.0 0.00 1.43 0.00 94 1010.4
20260904050039 80 46 0.0 0.0 0.00 1.43 1.43 94 1010.5
20260904044542 80 46 0.0 0.0 0.00 1.43 1.43 94 1010.5
20260904043032 80 46 0.0 1.0 0.00 1.43 1.43 94 1010.4
20260904041538 80 46 0.0 4.0 0.00 1.43 1.43 94 1010.4
20260904040033 80 46 0.0 0.0 0.00 1.43 1.43 94 1010.4
20260904034531 80 46 0.0 0.0 0.00 1.43 1.43 94 1010.5
20260904033031 80 46 0.0 0.0 0.00 1.43 1.43 94 1010.7
20260904031532 80 46 0.0 0.0 0.00 1.43 1.43 94 1010.6
20260904030030 80 46 0.0 0.0 0.00 1.43 1.43 94 1010.6
20260904024529 80 46 0.0 0.0 0.00 1.43 1.43 94 1010.5
20260904023028 80 46 0.0 0.0 0.00 1.43 1.43 93 1010.3
20260904021532 80 46 0.0 0.0 0.00 1.43 1.43 93 1010.0
20260904020039 80 46 0.0 0.0 0.00 1.43 1.43 93 1010.0
20260904014527 80 46 0.0 0.0 0.00 1.43 1.43 93 1009.8
20260904013026 80 46 0.0 0.0 0.00 1.43 1.43 93 1009.7
20260904011528 80 46 0.0 0.0 0.00 1.43 1.43 93 1009.6
20260904010025 81 46 0.0 0.0 0.00 1.43 1.43 93 1009.5
20260904004524 81 46 0.0 0.0 0.00 1.43 1.43 92 1009.5
20260904003027 81 46 0.0 0.0 0.00 1.43 1.43 93 1009.6
20260904001522 81 46 0.0 0.0 0.00 1.43 1.43 93 1009.7
20260904000022 81 46 0.0 0.0 0.00 1.43 1.43 95 1009.8
20260903234520 80 46 0.0 0.0 0.00 1.43 1.43 95 1009.8